Вернуться в каталог

IGS O-8

АктивенВоенныеSSO
NORAD 58762·PAYLOAD·🇯🇵 Japan

Запущен Jan 12, 2024 с Tanegashima Space Center

Loading…

Ближайшие Пролёты (ближайшие 24 часа)

TLE

УстаревшееSource: Mike McCants

Эпоха: Aug 13, 2026, 00:41 UTC

1 58762U 24010A   26225.02905224 0.00000000  00000-0  00000-0 0    09
2 58762  97.3453 346.1533 0000980 330.0712  29.9286 15.27638576    05

Отслеживайте IGS O-8 в реальном времени с AllMySat

Download on the App Store